Home   Weather   23°38'N, 102°33'W   Past weeks
Flag for Mexico

Past Weather in 23°38'N, 102°33'W, Mexico — Yesterday and Last 2 Weeks

Now
64 °F

Passing clouds.


Feels Like: 64 °F
Forecast: 74 / 56 °F
Wind: 6 mph from South

Location: Zacatecas Airport

Current Time: Oct 18, 2019 at 9:50:00 pm

Latest Report: Oct 18, 2019 at 8:43 pm


Visibility: 10 mi

Pressure: 30.13 "Hg

Humidity: 64%

Dew Point: 52 °F

Location of 23°38'N, 102°33'WLocation

Past Weather in 23°38'N, 102°33'W — Graph

°F

23°38'N, 102°33'W Temperature Yesterday

Maximum temperature yesterday: 75 °F (at 4:40 pm)
Minimum temperature yesterday: 54 °F (at 8:40 am)
Average temperature yesterday: 63 °F

High & Low Weather Summary for the Past Weeks

 TemperatureHumidityPressure
High81 °F (Oct 11, 4:40 pm)94% (Oct 11, 7:40 am)30.33 "Hg (Oct 11, 7:40 am)
Low50 °F (Oct 7, 6:41 am)20% (Oct 15, 6:40 pm)30.10 "Hg (Oct 18, 5:40 pm)
Average65 °F59%30.24 "Hg
* Reported Oct 3 7:40 pm — Oct 18 7:40 pm, 23°38'N, 102°33'W. Weather by CustomWeather, © 2019

Note: Actual official high and low records may vary slightly from our data, if they occured in-between our weather recording intervals... More about our weather records

Advertising

23°38'N, 102°33'W Weather History for the Previous 24 Hours

Scroll right to see more
 ConditionsComfort  
Time TempWeatherWind HumidityBarometerVisibility
7:40 pm
Fri, Oct 18
70 °FPassing clouds.6 mph46%30.12 "Hg10 mi
6:40 pm68 °FPartly sunny.12 mph64%30.12 "Hg10 mi
5:40 pm77 °FPartly sunny.6 mph36%30.10 "Hg10 mi
4:42 pm77 °FPartly sunny.12 mph36%30.11 "Hg10 mi
3:40 pm75 °FPartly sunny.12 mph39%30.12 "Hg10 mi
2:40 pm75 °FPartly sunny.6 mph44%30.14 "Hg10 mi
1:40 pm73 °FBroken clouds.12 mph47%30.17 "Hg10 mi
12:41 pm70 °FBroken clouds.No wind57%30.19 "Hg10 mi
11:41 am70 °FBroken clouds.No wind60%30.20 "Hg10 mi
10:40 am66 °FPassing clouds.No wind68%30.22 "Hg10 mi
9:40 am61 °FScattered clouds.6 mph83%30.21 "Hg10 mi
8:43 am54 °FScattered clouds.No wind94%30.19 "Hg10 mi
6:40 am54 °FPassing clouds.No wind94%30.17 "Hg10 mi
5:43 am54 °FPassing clouds.No wind94%30.17 "Hg10 mi
2:40 am55 °FPassing clouds.No wind88%30.18 "Hg10 mi
1:40 am57 °FPassing clouds.No wind82%30.16 "Hg10 mi
12:40 am61 °FPassing clouds.No wind72%30.16 "Hg10 mi
11:41 pm
Thu, Oct 17
61 °FPassing clouds.No wind77%30.19 "Hg10 mi
10:40 pm63 °FPassing clouds.No wind73%30.19 "Hg10 mi
9:40 pm64 °FPassing clouds.No wind68%30.17 "Hg10 mi
Weather by CustomWeather, © 2019

See weather overview